TimeEST,TemperatureF,Dew PointF,Humidity,Sea Level PressureIn,VisibilityMPH,Wind Direction,Wind SpeedMPH,Gust SpeedMPH,PrecipitationIn,Events,Conditions,WindDirDegrees,DateUTC
12:14 AM,7.5,3.0,82,30.54,10.0,SW,6.9,-,N/A,,Clear,220,2013-12-08 05:14:00
12:34 AM,9.0,4.5,82,30.53,10.0,SW,6.9,-,N/A,,Clear,220,2013-12-08 05:34:00
12:53 AM,7.7,3.4,83,30.53,10.0,SW,5.8,-,N/A,,Clear,230,2013-12-08 05:53:00
1:14 AM,6.8,3.0,84,30.53,10.0,SW,9.2,-,N/A,,Clear,230,2013-12-08 06:14:00
1:34 AM,8.6,4.6,84,30.53,10.0,SW,8.1,-,N/A,,Clear,230,2013-12-08 06:34:00
1:53 AM,9.1,4.8,83,30.53,10.0,SW,8.1,-,N/A,,Clear,220,2013-12-08 06:53:00
2:14 AM,7.9,3.4,82,30.52,10.0,SW,6.9,-,N/A,,Clear,230,2013-12-08 07:14:00
2:34 AM,5.9,3.0,88,30.52,10.0,WSW,8.1,-,N/A,,Clear,240,2013-12-08 07:34:00
2:53 AM,7.3,3.7,85,30.52,10.0,SW,6.9,-,N/A,,Clear,230,2013-12-08 07:53:00
3:14 AM,7.7,4.1,85,30.52,10.0,SSW,5.8,-,N/A,,Clear,210,2013-12-08 08:14:00
3:34 AM,6.4,2.3,83,30.52,10.0,SW,4.6,-,N/A,,Clear,230,2013-12-08 08:34:00
3:53 AM,5.2,2.3,88,30.53,10.0,WSW,8.1,-,N/A,,Clear,240,2013-12-08 08:53:00
4:14 AM,7.0,3.4,85,30.53,10.0,WSW,9.2,-,N/A,,Clear,240,2013-12-08 09:14:00
4:34 AM,7.7,4.1,85,30.53,10.0,SW,9.2,-,N/A,,Clear,230,2013-12-08 09:34:00
4:53 AM,8.4,4.6,85,30.53,10.0,WSW,10.4,-,N/A,,Clear,240,2013-12-08 09:53:00
5:14 AM,8.6,5.0,85,30.53,10.0,SW,8.1,-,N/A,,Clear,230,2013-12-08 10:14:00
5:34 AM,9.0,5.0,84,30.54,10.0,WSW,8.1,-,N/A,,Clear,240,2013-12-08 10:34:00
5:53 AM,8.4,4.6,85,30.54,10.0,WSW,4.6,-,N/A,,Clear,250,2013-12-08 10:53:00
6:14 AM,8.6,4.8,85,30.53,10.0,West,6.9,-,N/A,,Clear,270,2013-12-08 11:14:00
6:34 AM,8.1,4.1,84,30.53,10.0,WSW,3.5,-,N/A,,Clear,250,2013-12-08 11:34:00
6:53 AM,7.5,3.7,85,30.53,10.0,West,4.6,-,N/A,,Clear,270,2013-12-08 11:53:00
7:14 AM,8.4,5.0,86,30.52,10.0,WNW,3.5,-,N/A,,Clear,290,2013-12-08 12:14:00
7:34 AM,8.4,4.8,85,30.50,10.0,NW,4.6,-,N/A,,Clear,320,2013-12-08 12:34:00
7:54 AM,9.3,5.5,85,30.51,10.0,Calm,Calm,-,N/A,,Clear,0,2013-12-08 12:54:00
8:14 AM,10.4,5.9,82,30.51,10.0,Calm,Calm,-,N/A,,Clear,0,2013-12-08 13:14:00
8:34 AM,11.1,6.6,82,30.50,10.0,Calm,Calm,-,N/A,,Mostly Cloudy,0,2013-12-08 13:34:00
8:54 AM,12.0,7.2,81,30.50,10.0,Calm,Calm,-,N/A,,Overcast,0,2013-12-08 13:54:00
9:14 AM,13.1,7.7,79,30.50,10.0,Calm,Calm,-,N/A,,Overcast,0,2013-12-08 14:14:00
9:34 AM,14.7,9.1,79,30.49,10.0,Calm,Calm,-,N/A,,Scattered Clouds,0,2013-12-08 14:34:00
9:54 AM,15.4,9.5,77,30.48,10.0,Calm,Calm,-,N/A,,Mostly Cloudy,0,2013-12-08 14:54:00
10:14 AM,16.7,10.4,76,30.49,10.0,Calm,Calm,-,N/A,,Overcast,0,2013-12-08 15:14:00
10:34 AM,17.1,10.8,76,30.49,10.0,Calm,Calm,-,N/A,,Overcast,0,2013-12-08 15:34:00
10:54 AM,18.3,10.6,72,30.49,10.0,Calm,Calm,-,N/A,,Overcast,0,2013-12-08 15:54:00
11:14 AM,18.7,10.2,70,30.49,10.0,Calm,Calm,-,N/A,,Overcast,0,2013-12-08 16:14:00
11:33 AM,18.9,10.2,69,30.48,10.0,Calm,Calm,-,N/A,,Overcast,0,2013-12-08 16:33:00
11:54 AM,19.4,9.5,65,30.46,10.0,Calm,Calm,-,N/A,,Overcast,0,2013-12-08 16:54:00
12:14 PM,19.9,10.0,65,30.45,10.0,Calm,Calm,-,N/A,,Overcast,0,2013-12-08 17:14:00
12:33 PM,19.9,9.0,62,30.43,10.0,Calm,Calm,-,N/A,,Overcast,0,2013-12-08 17:33:00
12:54 PM,20.3,9.7,64,30.42,10.0,Calm,Calm,-,N/A,,Overcast,0,2013-12-08 17:54:00
1:14 PM,21.0,10.9,65,30.42,10.0,ESE,4.6,-,N/A,,Overcast,120,2013-12-08 18:14:00
1:33 PM,21.2,13.1,71,30.41,3.0,SE,3.5,-,N/A,Snow,Light Snow,140,2013-12-08 18:33:00
1:54 PM,21.2,14.7,76,30.40,5.0,Calm,Calm,-,N/A,,Haze,0,2013-12-08 18:54:00
2:14 PM,21.6,15.3,77,30.39,7.0,Calm,Calm,-,N/A,,Overcast,0,2013-12-08 19:14:00
2:33 PM,21.7,15.8,78,30.38,10.0,Calm,Calm,-,N/A,,Overcast,0,2013-12-08 19:33:00
2:54 PM,22.1,15.8,77,30.38,10.0,East,3.5,-,N/A,,Overcast,80,2013-12-08 19:54:00
3:14 PM,22.5,16.2,77,30.37,10.0,Calm,Calm,-,N/A,,Overcast,0,2013-12-08 20:14:00
3:33 PM,22.5,16.9,79,30.35,10.0,East,4.6,-,N/A,,Mostly Cloudy,80,2013-12-08 20:33:00
3:54 PM,22.5,17.4,81,30.34,10.0,ENE,4.6,-,N/A,Snow,Light Snow,60,2013-12-08 20:54:00
4:14 PM,22.6,17.8,82,30.33,10.0,NE,3.5,-,N/A,,Overcast,40,2013-12-08 21:14:00
4:33 PM,22.5,18.0,83,30.31,10.0,NNE,5.8,-,N/A,,Overcast,20,2013-12-08 21:33:00
4:54 PM,21.9,18.0,85,30.30,10.0,NNE,5.8,-,N/A,,Overcast,20,2013-12-08 21:54:00
5:14 PM,21.9,18.1,85,30.28,10.0,NNE,6.9,-,N/A,,Overcast,20,2013-12-08 22:14:00
5:34 PM,21.9,18.3,86,30.27,10.0,NNE,6.9,-,N/A,,Overcast,20,2013-12-08 22:34:00
5:54 PM,22.1,18.5,86,30.27,10.0,NNE,5.8,-,N/A,,Overcast,20,2013-12-08 22:54:00
6:14 PM,22.5,19.0,87,30.25,10.0,North,5.8,-,N/A,,Overcast,10,2013-12-08 23:14:00
6:34 PM,22.5,19.2,87,30.23,10.0,North,5.8,-,N/A,,Overcast,360,2013-12-08 23:34:00
6:54 PM,22.5,19.2,87,30.22,10.0,North,4.6,-,N/A,,Overcast,350,2013-12-08 23:54:00
7:14 PM,24.4,19.8,82,30.22,10.0,East,6.9,-,N/A,,Overcast,100,2013-12-09 00:14:00
7:34 PM,28.4,18.3,66,30.20,10.0,ESE,8.1,16.1,N/A,,Overcast,110,2013-12-09 00:34:00
7:54 PM,28.2,18.7,67,30.20,7.0,ESE,10.4,19.6,N/A,,Overcast,110,2013-12-09 00:54:00
8:14 PM,28.0,19.4,70,30.18,5.0,ESE,11.5,17.3,N/A,Snow,Light Snow,110,2013-12-09 01:14:00
8:34 PM,27.9,21.9,78,30.17,3.0,ESE,10.4,-,N/A,Snow,Light Snow,110,2013-12-09 01:34:00
8:54 PM,27.9,24.1,86,30.15,2.0,ESE,9.2,-,N/A,Snow,Light Snow,110,2013-12-09 01:54:00
9:14 PM,28.4,25.7,90,30.15,1.8,ESE,11.5,-,N/A,Snow,Light Snow,110,2013-12-09 02:14:00
9:34 PM,28.9,25.3,86,30.13,2.0,ESE,12.7,16.1,N/A,Snow,Light Snow,110,2013-12-09 02:34:00
9:54 PM,29.1,25.5,86,30.11,2.5,ESE,11.5,17.3,N/A,Snow,Light Snow,110,2013-12-09 02:54:00
10:13 PM,29.3,24.3,81,30.10,3.0,ESE,10.4,17.3,N/A,Snow,Light Snow,110,2013-12-09 03:13:00
10:34 PM,29.7,24.3,80,30.09,3.0,ESE,12.7,18.4,N/A,Snow,Light Snow,120,2013-12-09 03:34:00
10:54 PM,28.9,25.3,86,30.08,3.0,ESE,8.1,-,N/A,Snow,Light Snow,120,2013-12-09 03:54:00
11:13 PM,29.1,24.8,84,30.06,3.0,ESE,10.4,17.3,N/A,Snow,Light Snow,120,2013-12-09 04:13:00
11:34 PM,29.1,26.6,90,30.05,1.8,SE,6.9,-,N/A,Snow,Light Snow,130,2013-12-09 04:34:00
11:54 PM,28.9,26.4,90,30.03,1.8,SE,10.4,16.1,N/A,Snow,Light Snow,130,2013-12-09 04:54:00